Regional Weather Roundup
Issued by NWS

Home | Current Version | Previous Version | Text Only | Print | Product List | Glossary Off
Versions: 1 2 3 4 5 6 7 8 9 10 11 12 13 14 15 16 17 18 19 20 21 22 23 24 25 26 27 28 29 30 31 32 33 34 35 36 37 38 39 40 41 42 43 44 45 46 47 48 49 50

000
ASUS43 KLOT 242203
RWRIL

ILLINOIS REGIONAL WEATHER ROUNDUP
NATIONAL WEATHER SERVICE CHICAGO/ROMEOVILLE IL
500 PM CDT MON APR 24 2017

NOTE: "FAIR" INDICATES FEW OR NO CLOUDS BELOW 12,000 FEET WITH NO
SIGNIFICANT WEATHER AND/OR OBSTRUCTIONS TO VISIBILITY.

* THESE STATIONS ARE NOT UNDER NWS QUALITY CONTROL. THEY ALSO MAY NOT
  REPORT WEATHER SUCH AS PRECIPITATION OR FOG.

ILZ001-002-007-009-015-016-024-242300-
NORTHWEST ILLINOIS

CITY           SKY/WX    TMP DP  RH WIND       PRES   REMARKS
MOLINE         SUNNY     76  26  15 S13G22    29.73F
STERLING*      MOSUNNY   76  27  16 S12G18    29.77F
SAVANNA*       CLOUDY    77  21  12 S15G25    29.74F
$$

ILZ003-004-008-010-011-017-018-242300-
NORTH CENTRAL ILLINOIS

CITY           SKY/WX    TMP DP  RH WIND       PRES   REMARKS
ROCKFORD       CLOUDY    74  30  19 S13       29.80F
FREEPORT*      CLOUDY    72  25  17 SE14G20   29.79F
ROCHELLE*      CLOUDY    74  29  18 SE17      29.80F
DE KALB*       MOSUNNY   72  33  23 SE10G18   29.81F
PERU*          SUNNY     75  26  16 SE16G22   29.78F
$$

ILZ005-006-012>014-019>023-242300-
NORTHEAST ILLINOIS

CITY           SKY/WX    TMP DP  RH WIND       PRES   REMARKS
CHICAGO-OHARE  CLOUDY    71  28  20 E13       29.82F
CHICAGO-MIDWAY PTSUNNY   70  32  24 E13       29.83F
AURORA         SUNNY     74  31  20 SE9G18    29.80F
LANSING*       SUNNY     72  43  35 NE5       29.82F
JOLIET*        SUNNY     75  31  19 SE10      29.80F
WAUKEGAN       CLOUDY    61  34  36 E7        29.84F
DUPAGE AIRPORT SUNNY     73  31  21 SE14      29.80F
KANKAKEE*      SUNNY     77  28  16 E14       29.81F
WHEELING       CLOUDY    68  31  25 E12       29.84F
NORTHERLY ISL    N/A     59  37  44 N8          N/A
$$

LMZ740>746-242300-
SOUTHERN LAKE MICHIGAN

STATION/POSITION SKY/WX   TEMP    WIND        PRES    VSBY  WAVE
                          AIR SEA DIR/SP/G                  HT/PER
                          (F)     (DEG/KT/KT) (MB)    (MI)  (FT/S)
SOUTHERN BUOY              48 43   20/  6/  6 1012.7          1/ 5
HARRISON CRIB              52     360/  7/  7   N/A
BURNHAM HARBOR             58      10/  8/  8   N/A
CALUMET HARBOR             58     350/  8/ 10 1010.3F
BURNS HARBOR               56      70/ 10/ 13 1010.8F
MICHIGAN CITY              59      20/  8/ 10   N/A
ST. JOSEPH                 66 53  160/  8/ 12 1010.6F         1/ 2
$$

ILZ025>027-034>036-040-047-049-050-058-095>099-242300-
WEST-CENTRAL ILLINOIS

CITY           SKY/WX    TMP DP  RH WIND       PRES   REMARKS
QUINCY         MOSUNNY   75  28  17 S14       29.73F
GALESBURG*     SUNNY     75  29  18 S12G20    29.74F
MACOMB*        CLOUDY    78  24  13 S14       29.76F
JACKSONVILLE*  SUNNY     76  26  15 SE9       29.75F
PITTSFIELD*    SUNNY     78  30  17 SE13G18   29.76F
$$

ILZ028>032-037-038-041>044-048-051>054-059>061-242300-
CENTRAL ILLINOIS

CITY           SKY/WX    TMP DP  RH WIND       PRES   REMARKS
PONTIAC        SUNNY     78  19  11 SE16      29.79F
BLOOMINGTON    SUNNY     76  28  17 SE17      29.78F
DECATUR        SUNNY     76  31  19 SE13      29.76F
PEORIA         SUNNY     76  24  14 SE10      29.76F
LACON*         CLOUDY    77  32  19 SE8       29.76F
LINCOLN*       SUNNY     78  29  16 SE8G17    29.75F
SPRINGFIELD    SUNNY     79  26  14 E12       29.75F
TAYLORVILLE    SUNNY     76  28  17 SE8       29.76F
$$

ILZ033-039-045-046-055>057-062-063-242300-
EAST-CENTRAL ILLINOIS

CITY           SKY/WX    TMP DP  RH WIND       PRES   REMARKS
CHAMPAIGN      SUNNY     77  23  13 E15       29.78F
RANTOUL*       SUNNY     79  28  15 E16       29.79S
MATTOON        SUNNY     76  33  21 E9        29.76F
PARIS*         SUNNY     78  33  20 E13       29.78F
$$

ILZ079-100>102-242300-
SOUTHWEST ILLINOIS

CITY           SKY/WX    TMP DP  RH WIND       PRES   REMARKS
ALTON          MOSUNNY   73  34  23 SE12      29.76F
BELLEVILLE     SUNNY     76  38  25 E8        29.75F
CAHOKIA*       SUNNY     76  36  23 VRB5      29.75F
SPARTA*        SUNNY     74  40  29 E8        29.77F
$$

ILZ064>066-069>071-074>076-080>082-084>086-088>090-092>094-242300-
SOUTH-CENTRAL ILLINOIS

CITY           SKY/WX    TMP DP  RH WIND       PRES   REMARKS
CARBONDALE     SUNNY     74  44  34 E7        29.76F
CAIRO*         SUNNY     75  47  37 E5        29.76F
EFFINGHAM*     SUNNY     77  36  22 E9        29.78F
MT. VERNON     SUNNY     76  38  25 E8        29.77F
CENTRALIA*     SUNNY     77  33  19 E6        29.75F
SALEM*         SUNNY     78  26  15 SE6       29.76F
METROPOLIS*    SUNNY     76  49  37 CALM      29.77F
$$

ILZ067-068-072-073-078-083-087-091-242300-
SOUTHEAST ILLINOIS

CITY           SKY/WX    TMP DP  RH WIND       PRES   REMARKS
LAWRENCEVILLE  SUNNY     78  35  21 NE8       29.76F
FLORA*         SUNNY     78  33  19 E8        29.76F
FAIRFIELD*     SUNNY     76  37  24 SE7       29.75F
HARRISBURG*    SUNNY     74  46  36 E6        29.78F
ROBINSON*      SUNNY     76  36  23 NE9       29.77F
CARMI*         SUNNY     76  42  30 E10       29.76F
$$

ABBREVIATIONS USED IN REMARKS
   TC - TEMPERATURE IN CELSIUS
  WCI - WIND CHILL INDEX
   HX - HEAT INDEX
  VSB - VISIBILITY
$$





USA.gov is the U.S. government's official web portal to all federal, state and local government web resources and services.